Flag for Colombia Weather past 2 weeks in Cartagena, Colombia

Now
82 °F

Scattered clouds.


Feels Like: 91 °F
Forecast: 79 / 88 °F
Wind: 5 mph from Southwest

Location: Cartagena / Rafael Nunez

Current Time: Oct 25, 2014 at 1:24:43 PM

Latest Report: Oct 25, 2014 at 1:00 PM


Visibility: N/A

Pressure: 29.83 "Hg

Humidity: 84%

Dew point: 77 °F

Location of CartagenaLocation

Historic Weather in Cartagena — Graph

°F

Cartagena temperature yesterday

Maximum temperature yesterday: 91 °F (at 2:00 PM)
Minimum temperature yesterday: 81 °F (at 3:00 AM)
Average temperature yesterday: 86 °F

Past Weeks' High & Low Weather Summary

 TemperatureHumidityPressure
High91 °F (Oct 17, 11:00 AM)100% (Oct 13, 4:00 AM)29.94 "Hg (Oct 13, 4:00 AM)
Low73 °F (Oct 14, 4:00 AM)63% (Oct 17, 11:00 AM)29.74 "Hg (Oct 10, 4:00 PM)
Average83 °F85%29.82 "Hg
* Reported Oct 10 12:00 Noon — Oct 25 12:00 Noon, Cartagena, Weather by CustomWeather, © 2014

Note: Actual official high and low records may vary slightly from our data, if they occured in-between our weather recording intervals... More about our weather records

Advertising

Cartagena weather history for previous 24 hours

 ConditionsComfort  
Time TempWeatherWind HumidityBarometerVisibility
12:00 PM
Oct 25
82 °FPartly sunny.16 mph84%29.86 "HgN/A
11:00 AM86 °FScattered showers. Partly sunny.3 mph84%29.86 "HgN/A
10:00 AM82 °FRain. Partly sunny.8 mph89%29.88 "HgN/A
9:00 AM90 °FPassing clouds.3 mph71%29.87 "HgN/A
8:00 AM88 °FScattered clouds.3 mph75%29.86 "HgN/A
7:00 AM82 °FScattered clouds.3 mph89%29.83 "Hg5 mi
6:00 AM81 °FHaze.3 mph94%29.81 "Hg3 mi
5:00 AM81 °FPassing clouds.No wind94%29.78 "HgN/A
4:00 AM81 °FPassing clouds.2 mph100%29.78 "HgN/A
3:00 AM82 °FPassing clouds.No wind94%29.79 "HgN/A
2:00 AM82 °FPassing clouds.3 mph94%29.79 "HgN/A
1:00 AM84 °FPassing clouds.No wind84%29.80 "HgN/A
12:00 AM84 °FPassing clouds.3 mph89%29.81 "HgN/A
11:00 PM
Oct 24
84 °FPassing clouds.2 mph89%29.83 "HgN/A
10:00 PM84 °FPassing clouds.2 mph84%29.81 "HgN/A
9:00 PM84 °FPassing clouds.3 mph84%29.81 "HgN/A
8:00 PM84 °FPassing clouds.5 mph84%29.78 "HgN/A
7:00 PM84 °FPassing clouds.8 mph84%29.76 "HgN/A
6:00 PM86 °FPassing clouds.5 mph79%29.74 "HgN/A
5:00 PM88 °FScattered clouds.7 mph75%29.74 "HgN/A
4:00 PM90 °FPassing clouds.9 mph71%29.74 "HgN/A
3:00 PM90 °FPassing clouds.8 mph75%29.74 "HgN/A
2:00 PM91 °FScattered clouds.10 mph71%29.76 "HgN/A
1:00 PM90 °FPartly sunny.8 mph75%29.78 "HgN/A
Weather by CustomWeather, © 2014

See weather overviewHow to use our weather pages